Location: De Greiden
(52.9496°N, 5.9137°E)
Time: 01:08:17
(UTC+00:00)

Cosmos 1726 Rocket - Pass Details

Date: 24 January 2021
Orbit: 604 x 628 km, 82.5° (Epoch: 26 February)

Event Time Altitude Azimuth Distance (km) Brightness Sun altitude
Rises 17:03:25 0° 347° (NNW) 2,888 6.9 -8.6°
Reaches altitude 10° 17:05:39 10° 345° (NNW) 1,982 6.1 -8.9°
Maximum altitude 17:10:01 71° 262° (W) 655 3.9 -9.5°
Drops below altitude 10° 17:14:23 10° 179° (S) 1,982 6.4 -10.1°
Sets 17:16:36 0° 177° (S) 2,887 7.2 -10.4°
